Weather History for KSPW - April, 2013

Change the Weather History Date:

Friday, April 12, 2013

  Actual Average Record
Temperature  
Mean Temperature 33 °F -  
Max Temperature 37 °F 55 °F 80 °F (1977)
Min Temperature 28 °F 34 °F 15 °F (1990)
Degree Days  
Heating Degree Days 32    
Moisture  
Dew Point 27 °F    
Average Humidity 81    
Maximum Humidity 89    
Minimum Humidity 70    
Precipitation  
Precipitation 0.00 in - - ()
Sea Level Pressure  
Sea Level Pressure 29.82 in    
Wind  
Wind Speed 14 mph (NW)    
Max Wind Speed 21 mph    
Max Gust Speed 24 mph    
Visibility 10 miles    
Events      
Averages and records for this station are not official NWS values.
T = Trace of Precipitation, MM = Missing Value Source: NWS Daily Summary

Daily Weather History Graph

Daily Weather History Graph

Search for Another Location

Airport or City:

Trip Planner

Search our weather history database for the weather conditions in past years. The results will help you decide how hot, cold, wet, or windy it might be!

Date:

Astronomy

Apr. 12, 2013 Rise Set
Actual Time 6:43 AM CDT 8:00 PM CDT
Civil Twilight 6:13 AM CDT 8:29 PM CDT
Nautical Twilight 5:38 AM CDT 9:05 PM CDT
Astronomical Twilight 5:01 AM CDT 9:42 PM CDT
Moon 7:50 AM CDT (4/12) 10:36 PM CDT (4/12)
Length of Visible Light 14h 15m
Length of Day
13h 17m
Waxing Crescent, 5% of the Moon is Illuminated
Apr 12
Waxing Crescent
Apr 18
First Quarter
Apr 25
Full
May 2
Last Quarter
May 9
New

Hourly Weather History & Observations

Time (CDT) Temp. Windchill Dew Point Humidity Pressure Visibility Wind Dir Wind Speed Gust Speed Precip Events Conditions
12:20 AM 33.8 °F 25.8 °F 30.2 °F 87% 29.64 in 8.0 mi NNW 10.4 mph - N/A   Overcast
12:53 AM 33.1 °F 24.4 °F 30.0 °F 89% 29.69 in 10.0 mi NNW 11.5 mph - N/A   Overcast
1:53 AM 33.1 °F 23.9 °F 30.0 °F 89% 29.70 in 9.0 mi North 12.7 mph - N/A   Overcast
2:53 AM 32.0 °F 22.5 °F 28.9 °F 88% 29.70 in 10.0 mi North 12.7 mph - N/A   Overcast
3:53 AM 30.9 °F 20.7 °F 28.0 °F 89% 29.71 in 10.0 mi NNW 13.8 mph - N/A   Overcast
4:53 AM 30.9 °F 21.2 °F 27.0 °F 85% 29.73 in 10.0 mi NNW 12.7 mph - N/A   Overcast
5:36 AM 30.2 °F 19.8 °F 26.6 °F 86% 29.69 in 10.0 mi North 13.8 mph - N/A   Overcast
5:46 AM 30.2 °F 20.2 °F 26.6 °F 86% 29.69 in 10.0 mi North 12.7 mph - N/A   Overcast
5:53 AM 30.0 °F 20.5 °F 26.1 °F 85% 29.73 in 10.0 mi NNW 11.5 mph - N/A   Overcast
6:53 AM 30.0 °F 19.1 °F 26.1 °F 85% 29.75 in 10.0 mi NNW 15.0 mph - 0.00 in   Overcast
7:53 AM 30.0 °F 19.5 °F 26.1 °F 85% 29.76 in 10.0 mi NNW 13.8 mph - N/A   Overcast
8:53 AM 30.0 °F 19.5 °F 26.1 °F 85% 29.79 in 10.0 mi NW 13.8 mph - N/A   Overcast
9:53 AM 30.9 °F 19.1 °F 26.1 °F 82% 29.81 in 10.0 mi NW 18.4 mph 23.0 mph 0.00 in   Overcast
10:06 AM 30.2 °F 19.3 °F 26.6 °F 86% 29.77 in 10.0 mi NW 15.0 mph - N/A   Overcast
10:38 AM 32.0 °F 22.1 °F 26.6 °F 80% 29.78 in 10.0 mi NW 13.8 mph - N/A   Overcast
10:53 AM 32.0 °F 20.5 °F 26.1 °F 79% 29.83 in 10.0 mi WNW 18.4 mph 23.0 mph N/A   Overcast
11:53 AM 33.1 °F 21.2 °F 27.0 °F 78% 29.84 in 10.0 mi NW 20.7 mph 24.2 mph N/A   Overcast
12:53 PM 34.0 °F 23.0 °F 27.0 °F 75% 29.84 in 10.0 mi WNW 18.4 mph - N/A   Overcast
1:53 PM 34.0 °F 23.4 °F 26.1 °F 73% 29.85 in 10.0 mi NW 17.3 mph - N/A   Overcast
2:53 PM 36.0 °F 26.3 °F 27.0 °F 70% 29.87 in 10.0 mi NW 16.1 mph - N/A   Overcast
3:53 PM 36.0 °F 25.3 °F 28.0 °F 73% 29.87 in 10.0 mi WNW 19.6 mph - N/A   Overcast
4:53 PM 34.0 °F 23.8 °F 26.1 °F 73% 29.89 in 10.0 mi WNW 16.1 mph - N/A   Overcast
5:26 PM 33.8 °F 22.5 °F 26.6 °F 75% 29.86 in 10.0 mi WNW 19.6 mph - N/A   Overcast
5:46 PM 33.8 °F 22.8 °F 26.6 °F 75% 29.86 in 10.0 mi WNW 18.4 mph - N/A   Overcast
5:53 PM 33.1 °F 22.2 °F 26.1 °F 75% 29.91 in 10.0 mi WNW 17.3 mph - N/A   Overcast
6:53 PM 32.0 °F 19.8 °F 26.1 °F 79% 29.92 in 10.0 mi WNW 20.7 mph - N/A   Overcast
7:53 PM 32.0 °F 20.5 °F 25.0 °F 75% 29.93 in 10.0 mi WNW 18.4 mph - N/A   Overcast
8:53 PM 30.9 °F 19.4 °F 25.0 °F 79% 29.94 in 10.0 mi WNW 17.3 mph - N/A   Overcast
9:53 PM 30.9 °F 19.8 °F 25.0 °F 79% 29.95 in 10.0 mi WNW 16.1 mph - N/A   Overcast
10:53 PM 30.0 °F 20.0 °F 25.0 °F 82% 29.95 in 10.0 mi WNW 12.7 mph - N/A   Mostly Cloudy
11:22 PM 30.2 °F 20.2 °F 24.8 °F 80% 29.91 in 10.0 mi WNW 12.7 mph - N/A   Mostly Cloudy
11:53 PM 28.9 °F 18.2 °F 25.0 °F 85% 29.96 in 10.0 mi WNW 13.8 mph - N/A   Mostly Cloudy